RANA Weather Reports


Display with metric or nautical units.
time (UTC)temp
F
wind
direction
speed
MPH
gust
MPH
rain 1hr
in
rain 24hr
in
rain mn
in
humidity
%
barometer
mb
20260906082014 59 295 7.0 9.0 0.00 0.00 0.00 57
20260906081511 59 313 7.0 11.0 0.00 0.00 0.00 58
20260906081010 59 294 7.0 7.0 0.00 0.00 0.00 57
20260906080510 57 294 7.0 11.0 0.00 0.00 0.00 59
20260906080011 57 299 11.0 13.0 0.00 0.00 0.00 59
20260906075510 57 334 9.0 11.0 0.00 0.00 0.00 62
20260906075010 59 301 7.0 9.0 0.00 0.00 0.00 61
20260906074511 59 293 7.0 7.0 0.00 0.00 0.00 60
20260906074011 59 321 4.0 7.0 0.00 0.00 0.00 61
20260906073510 57 293 7.0 9.0 0.00 0.00 0.00 61
20260906073011 57 314 7.0 11.0 0.00 0.00 0.00 62
20260906072512 57 303 7.0 9.0 0.00 0.00 0.00 63
20260906072010 57 332 7.0 11.0 0.00 0.00 0.00 63
20260906071511 57 329 4.0 7.0 0.00 0.00 0.00 64
20260906071010 55 296 9.0 11.0 0.00 0.00 0.00 65
20260906070510 55 303 2.0 4.0 0.00 0.00 0.00 66
20260906070011 55 302 9.0 9.0 0.00 0.00 0.00 67
20260906065511 55 315 7.0 9.0 0.00 0.00 0.00 67
20260906065011 54 313 7.0 9.0 0.00 0.00 0.00 68
20260906064511 57 288 9.0 11.0 0.00 0.00 0.00 64
20260906064010 57 295 9.0 11.0 0.00 0.00 0.00 64
20260906063511 57 297 7.0 9.0 0.00 0.00 0.00 65
20260906063009 57 304 7.0 9.0 0.00 0.00 0.00 65
20260906062510 55 312 7.0 9.0 0.00 0.00 0.00 67
20260906062012 55 301 7.0 9.0 0.00 0.00 0.00 69
20260906061510 55 307 7.0 9.0 0.00 0.00 0.00 69
20260906060511 55 311 9.0 11.0 0.00 0.00 0.00 70
20260906060010 55 309 11.0 13.0 0.00 0.00 0.00 69
20260906055511 55 313 7.0 9.0 0.00 0.00 0.00 70
20260906055010 55 315 7.0 9.0 0.00 0.00 0.00 70
20260906054510 54 307 9.0 11.0 0.00 0.00 0.00 71
20260906054009 54 308 9.0 11.0 0.00 0.00 0.00 72
20260906053510 54 312 9.0 11.0 0.00 0.00 0.00 72
20260906053010 54 315 9.0 11.0 0.00 0.00 0.00 72
20260906052511 54 314 9.0 11.0 0.00 0.00 0.00 72
20260906052012 54 311 11.0 13.0 0.00 0.00 0.00 72
20260906051511 54 314 11.0 13.0 0.00 0.00 0.00 73
20260906051010 54 304 11.0 13.0 0.00 0.00 0.00 72
20260906050509 54 299 13.0 16.0 0.00 0.00 0.00 71
20260906050010 55 292 11.0 16.0 0.00 0.00 0.00 69
20260906045510 55 305 11.0 13.0 0.00 0.00 0.00 69
20260906045010 54 303 11.0 13.0 0.00 0.00 0.00 70
20260906044512 54 306 9.0 11.0 0.00 0.00 0.00 72
20260906044011 54 310 9.0 11.0 0.00 0.00 0.00 72
20260906043510 54 313 9.0 11.0 0.00 0.00 0.00 72
20260906043010 54 303 9.0 11.0 0.00 0.00 0.00 72
20260906042511 54 304 11.0 13.0 0.00 0.00 0.00 72
20260906042010 54 314 11.0 13.0 0.00 0.00 0.00 71
20260906041511 54 307 9.0 11.0 0.00 0.00 0.00 72
20260906041011 54 299 11.0 11.0 0.00 0.00 0.00 73
20260906040510 54 294 9.0 13.0 0.00 0.00 0.00 73
20260906040010 54 293 11.0 13.0 0.00 0.00 0.00 73
20260906035510 54 289 11.0 11.0 0.00 0.00 0.00 72
20260906035009 54 289 11.0 13.0 0.00 0.00 0.00 72
20260906034510 54 293 11.0 13.0 0.00 0.00 0.00 72
20260906034010 54 291 11.0 16.0 0.00 0.00 0.00 71
20260906033511 54 288 11.0 13.0 0.00 0.00 0.00 72
20260906033010 54 284 11.0 16.0 0.00 0.00 0.00 72
20260906032510 54 290 11.0 13.0 0.00 0.00 0.00 72
20260906032012 54 288 13.0 13.0 0.00 0.00 0.00 72
20260906031510 54 286 13.0 16.0 0.00 0.00 0.00 72
20260906031011 54 287 13.0 13.0 0.00 0.00 0.00 73
20260906030510 54 287 13.0 13.0 0.00 0.00 0.00 72
20260906030011 54 288 13.0 16.0 0.00 0.00 0.00 73
20260906025511 54 284 16.0 18.0 0.00 0.00 0.00 73
20260906025010 54 282 16.0 16.0 0.00 0.00 0.00 73
20260906024511 54 284 16.0 18.0 0.00 0.00 0.00 73
20260906024011 54 282 16.0 18.0 0.00 0.00 0.00 72
20260906023009 54 279 16.0 16.0 0.00 0.00 0.00 72
20260906022511 54 277 13.0 13.0 0.00 0.00 0.00 71
20260906022011 55 275 13.0 16.0 0.00 0.00 0.00 71
20260906021510 55 281 11.0 13.0 0.00 0.00 0.00 70
20260906021011 55 277 11.0 13.0 0.00 0.00 0.00 71
20260906020511 55 281 11.0 13.0 0.00 0.00 0.00 71
20260906020010 54 283 11.0 13.0 0.00 0.00 0.00 71
20260906015511 54 281 11.0 13.0 0.00 0.00 0.00 72
20260906015010 54 284 11.0 13.0 0.00 0.00 0.00 72
20260906014510 54 294 11.0 13.0 0.00 0.00 0.00 72
20260906014009 54 283 11.0 13.0 0.00 0.00 0.00 72
20260906013510 54 284 13.0 16.0 0.00 0.00 0.00 72
20260906013011 54 286 11.0 11.0 0.00 0.00 0.00 72
20260906012511 55 301 13.0 13.0 0.00 0.00 0.00 70
20260906012011 55 307 13.0 16.0 0.00 0.00 0.00 70
20260906011510 55 304 13.0 16.0 0.00 0.00 0.00 70
20260906011011 55 305 18.0 20.0 0.00 0.00 0.00 69
20260906010511 55 295 16.0 18.0 0.00 0.00 0.00 69
20260906010010 55 286 11.0 13.0 0.00 0.00 0.00 69
20260906005510 55 279 11.0 13.0 0.00 0.00 0.00 68
20260906005009 55 289 11.0 11.0 0.00 0.00 0.00 69
20260906004510 55 293 11.0 11.0 0.00 0.00 0.00 69
20260906004010 55 303 11.0 13.0 0.00 0.00 0.00 69
20260906003510 55 308 11.0 16.0 0.00 0.00 0.00 69
20260906003011 55 299 13.0 18.0 0.00 0.00 0.00 68
20260906002511 55 299 13.0 16.0 0.00 0.00 0.00 69
20260906002012 55 294 13.0 13.0 0.00 0.00 0.00 69
20260906001510 55 298 13.0 16.0 0.00 0.00 0.00 68
20260906001010 57 301 13.0 16.0 0.00 0.00 0.00 67
20260906000511 55 304 13.0 16.0 0.00 0.00 0.00 68
20260906000011 55 309 13.0 16.0 0.00 0.00 0.00 67
20260905235511 57 310 18.0 20.0 0.00 0.00 0.00 67
20260905235009 57 309 16.0 20.0 0.00 0.00 0.00 66
20260905234511 57 313 16.0 20.0 0.00 0.00 0.00 66
20260905234010 57 308 16.0 20.0 0.00 0.00 0.00 66
20260905233511 57 305 18.0 20.0 0.00 0.00 0.00 66
20260905233010 57 312 18.0 20.0 0.00 0.00 0.00 65
20260905232510 57 313 16.0 20.0 0.00 0.00 0.00 65
20260905232011 57 307 13.0 18.0 0.00 0.00 0.00 65
20260905231511 57 307 16.0 20.0 0.00 0.00 0.00 64
20260905231010 57 309 16.0 18.0 0.00 0.00 0.00 64
20260905230510 57 304 13.0 16.0 0.00 0.00 0.00 64
20260905230010 57 303 13.0 16.0 0.00 0.00 0.00 64
20260905225510 57 307 18.0 20.0 0.00 0.00 0.00 63
20260905225010 57 299 16.0 18.0 0.00 0.00 0.00 63
20260905224510 57 301 18.0 22.0 0.00 0.00 0.00 63
20260905224010 57 307 16.0 18.0 0.00 0.00 0.00 63
20260905223510 59 296 18.0 20.0 0.00 0.00 0.00 62
20260905223010 59 294 18.0 20.0 0.00 0.00 0.00 61
20260905222504 59 294 18.0 22.0 0.00 0.00 0.00 61
20260905222011 59 293 16.0 18.0 0.00 0.00 0.00 61
20260905221511 59 297 13.0 16.0 0.00 0.00 0.00 61
20260905221011 59 295 18.0 20.0 0.00 0.00 0.00 61
20260905220010 59 306 16.0 20.0 0.00 0.00 0.00 61
20260905215511 59 306 18.0 20.0 0.00 0.00 0.00 60
20260905215010 59 303 18.0 22.0 0.00 0.00 0.00 60
20260905214511 59 305 16.0 20.0 0.00 0.00 0.00 61
20260905214011 59 301 16.0 18.0 0.00 0.00 0.00 60
20260905213511 59 301 18.0 18.0 0.00 0.00 0.00 60
20260905213010 59 307 18.0 20.0 0.00 0.00 0.00 59
20260905212510 59 303 18.0 22.0 0.00 0.00 0.00 59
20260905212011 59 309 18.0 22.0 0.00 0.00 0.00 59
20260905211510 59 318 16.0 20.0 0.00 0.00 0.00 59
20260905211010 59 306 20.0 25.0 0.00 0.00 0.00 59
20260905210510 59 302 20.0 22.0 0.00 0.00 0.00 59
20260905210017 59 302 16.0 18.0 0.00 0.00 0.00 58
20260905205509 59 292 20.0 27.0 0.00 0.00 0.00 58
20260905205011 59 299 18.0 22.0 0.00 0.00 0.00 58
20260905204510 59 295 18.0 22.0 0.00 0.00 0.00 57
20260905204010 59 293 18.0 22.0 0.00 0.00 0.00 56
20260905203510 59 300 16.0 18.0 0.00 0.00 0.00 57
20260905203011 59 296 18.0 20.0 0.00 0.00 0.00 57
20260905202510 59 294 18.0 20.0 0.00 0.00 0.00 56
20260905202012 61 295 18.0 20.0 0.00 0.00 0.00 55
20260905201510 61 295 16.0 18.0 0.00 0.00 0.00 56
20260905201014 61 297 16.0 18.0 0.00 0.00 0.00 55
20260905200510 61 295 16.0 20.0 0.00 0.00 0.00 55
20260905200013 61 290 18.0 20.0 0.00 0.00 0.00 54
20260905195510 61 291 18.0 20.0 0.00 0.00 0.00 54
20260905195010 61 296 20.0 25.0 0.00 0.00 0.00 54
20260905194511 61 292 20.0 22.0 0.00 0.00 0.00 53
20260905194010 61 286 22.0 25.0 0.00 0.00 0.00 53
20260905193526 61 291 20.0 22.0 0.00 0.00 0.00 53
20260905193009 61 289 18.0 20.0 0.00 0.00 0.00 52
20260905192515 61 293 18.0 20.0 0.00 0.00 0.00 52
20260905192010 61 289 18.0 20.0 0.00 0.00 0.00 52
20260905191511 61 286 16.0 18.0 0.00 0.00 0.00 52
20260905191010 61 289 16.0 18.0 0.00 0.00 0.00 52
20260905190510 61 294 16.0 18.0 0.00 0.00 0.00 52
20260905190010 61 289 16.0 18.0 0.00 0.00 0.00 51
20260905185510 61 297 13.0 16.0 0.00 0.00 0.00 51
20260905185010 63 292 16.0 18.0 0.00 0.00 0.00 51
20260905184510 63 296 20.0 25.0 0.00 0.00 0.00 50
20260905184010 63 293 18.0 22.0 0.00 0.00 0.00 50
20260905183510 63 306 18.0 25.0 0.00 0.00 0.00 50
20260905183011 63 291 20.0 25.0 0.00 0.00 0.00 49
20260905182510 63 302 22.0 27.0 0.00 0.00 0.00 49
20260905182013 63 287 25.0 29.0 0.00 0.00 0.00 49
20260905181510 63 288 18.0 20.0 0.00 0.00 0.00 50
20260905181011 63 292 16.0 18.0 0.00 0.00 0.00 49
20260905180511 63 294 18.0 20.0 0.00 0.00 0.00 49
20260905180004 63 288 18.0 20.0 0.00 0.00 0.00 48
20260905175513 63 290 18.0 20.0 0.00 0.00 0.00 48
20260905175010 63 292 16.0 20.0 0.00 0.00 0.00 48
20260905174510 63 293 22.0 25.0 0.00 0.00 0.00 47
20260905174010 63 289 20.0 25.0 0.00 0.00 0.00 48
20260905173527 63 289 22.0 25.0 0.00 0.00 0.00 47
20260905173011 64 290 22.0 25.0 0.00 0.00 0.00 47
20260905172511 64 291 22.0 27.0 0.00 0.00 0.00 46
20260905172012 64 291 31.0 36.0 0.00 0.00 0.00 45
20260905171518 64 292 25.0 29.0 0.00 0.00 0.00 46
20260905171009 64 296 25.0 29.0 0.00 0.00 0.00 45
20260905170510 64 295 22.0 25.0 0.00 0.00 0.00 46
20260905170010 64 298 25.0 27.0 0.00 0.00 0.00 45
20260905165510 66 293 25.0 29.0 0.00 0.00 0.00 45
20260905165011 66 286 22.0 27.0 0.00 0.00 0.00 44
20260905164511 66 280 25.0 29.0 0.00 0.00 0.00 45
20260905164010 66 288 25.0 29.0 0.00 0.00 0.00 45
20260905163510 66 292 22.0 27.0 0.00 0.00 0.00 46
20260905163019 66 296 20.0 22.0 0.00 0.00 0.00 45
20260905162510 66 300 25.0 27.0 0.00 0.00 0.00 45
20260905162011 66 316 22.0 27.0 0.00 0.00 0.00 45
20260905161510 66 292 25.0 31.0 0.00 0.00 0.00 44
20260905161009 66 297 27.0 29.0 0.00 0.00 0.00 46
20260905160511 66 300 20.0 25.0 0.00 0.00 0.00 46
20260905160011 66 308 20.0 27.0 0.00 0.00 0.00 46
20260905155511 66 310 22.0 27.0 0.00 0.00 0.00 46
20260905154517 66 308 20.0 25.0 0.00 0.00 0.00 47
20260905154010 66 318 16.0 20.0 0.00 0.00 0.00 47
20260905153510 66 311 22.0 27.0 0.00 0.00 0.00 43
20260905153011 68 302 25.0 29.0 0.00 0.00 0.00 42
20260905152510 68 299 25.0 29.0 0.00 0.00 0.00 43
20260905152014 66 280 25.0 29.0 0.00 0.00 0.00 43
20260905151510 66 297 20.0 25.0 0.00 0.00 0.00 44
20260905151010 66 294 25.0 29.0 0.00 0.00 0.00 43
20260905150510 66 296 25.0 29.0 0.00 0.00 0.00 43
20260905150020 66 304 25.0 29.0 0.00 0.00 0.00 44
20260905145510 66 300 27.0 29.0 0.00 0.00 0.00 44
20260905145010 66 304 20.0 25.0 0.00 0.00 0.00 43
20260905144510 66 297 22.0 27.0 0.00 0.00 0.00 43
20260905144010 68 306 20.0 25.0 0.00 0.00 0.00 43
20260905143510 66 311 22.0 27.0 0.00 0.00 0.00 44
20260905143010 66 304 25.0 27.0 0.00 0.00 0.00 43
20260905142511 66 293 27.0 34.0 0.00 0.00 0.00 43
20260905142012 66 301 31.0 36.0 0.00 0.00 0.00 42
20260905141510 66 300 25.0 29.0 0.00 0.00 0.00 43
20260905141010 68 305 18.0 20.0 0.00 0.00 0.00 43
20260905140527 66 298 20.0 27.0 0.00 0.00 0.00 44
20260905140011 66 303 22.0 27.0 0.00 0.00 0.00 44
20260905135511 66 307 16.0 22.0 0.00 0.00 0.00 44
20260905135018 66 304 25.0 27.0 0.00 0.00 0.00 44
20260905134511 66 295 29.0 34.0 0.00 0.00 0.00 43
20260905134010 66 303 20.0 25.0 0.00 0.00 0.00 43
20260905133534 66 309 25.0 29.0 0.00 0.00 0.00 43
20260905133011 68 284 25.0 31.0 0.00 0.00 0.00 43
20260905132510 66 298 20.0 25.0 0.00 0.00 0.00 45
20260905132016 66 289 25.0 27.0 0.00 0.00 0.00 43
20260905131511 66 305 22.0 27.0 0.00 0.00 0.00 43
20260905131009 66 295 25.0 27.0 0.00 0.00 0.00 43
20260905130509 66 295 18.0 20.0 0.00 0.00 0.00 46
20260905130010 66 296 22.0 27.0 0.00 0.00 0.00 44
20260905125521 66 292 18.0 22.0 0.00 0.00 0.00 46
20260905125020 66 298 20.0 27.0 0.00 0.00 0.00 46
20260905124517 66 298 18.0 22.0 0.00 0.00 0.00 45
20260905124017 66 287 22.0 27.0 0.00 0.00 0.00 45
20260905123510 66 299 22.0 27.0 0.00 0.00 0.00 46
20260905123010 66 296 18.0 20.0 0.00 0.00 0.00 46
20260905122511 66 294 18.0 22.0 0.00 0.00 0.00 46
20260905122017 64 297 27.0 29.0 0.00 0.00 0.00 47
20260905121512 64 306 22.0 25.0 0.00 0.00 0.00 47
20260905121010 66 312 22.0 27.0 0.00 0.00 0.00 46
20260905120518 68 307 22.0 27.0 0.00 0.00 0.00 45
20260905120010 66 284 27.0 31.0 0.00 0.00 0.00 46
20260905115511 66 294 20.0 25.0 0.00 0.00 0.00 46
20260905115010 66 282 20.0 27.0 0.00 0.00 0.00 47
20260905114511 66 295 25.0 29.0 0.00 0.00 0.00 45
20260905114016 66 294 25.0 27.0 0.00 0.00 0.00 46
20260905113510 66 273 22.0 27.0 0.00 0.00 0.00 45
20260905113011 66 287 22.0 31.0 0.00 0.00 0.00 46
20260905112511 66 295 18.0 20.0 0.00 0.00 0.00 47
20260905112018 64 291 20.0 22.0 0.00 0.00 0.00 50
20260905111510 66 299 22.0 27.0 0.00 0.00 0.00 48
20260905111010 64 282 25.0 29.0 0.00 0.00 0.00 47
20260905110511 66 283 27.0 29.0 0.00 0.00 0.00 46
20260905110011 63 286 25.0 29.0 0.00 0.00 0.00 48
20260905105511 64 280 22.0 27.0 0.00 0.00 0.00 52
20260905105017 64 287 29.0 34.0 0.00 0.00 0.00 50
20260905104510 64 276 31.0 38.0 0.00 0.00 0.00 48
20260905104010 64 287 22.0 27.0 0.00 0.00 0.00 50
20260905103511 64 284 20.0 22.0 0.00 0.00 0.00 50
20260905103011 64 291 25.0 27.0 0.00 0.00 0.00 49
20260905102510 63 286 25.0 29.0 0.00 0.00 0.00 51
20260905102020 64 276 20.0 25.0 0.00 0.00 0.00 50
20260905101520 64 283 20.0 27.0 0.00 0.00 0.00 51
20260905101011 63 284 27.0 27.0 0.00 0.00 0.00 54
20260905100510 63 295 22.0 27.0 0.00 0.00 0.00 51
20260905100010 63 281 25.0 27.0 0.00 0.00 0.00 52
20260905095511 63 287 25.0 29.0 0.00 0.00 0.00 53
20260905095011 63 281 27.0 34.0 0.00 0.00 0.00 57
20260905094511 63 278 22.0 29.0 0.00 0.00 0.00 56
20260905094011 63 278 22.0 29.0 0.00 0.00 0.00 60
20260905093510 61 279 20.0 22.0 0.00 0.00 0.00 59
20260905093011 63 273 22.0 27.0 0.00 0.00 0.00 58
20260905092520 63 252 18.0 22.0 0.00 0.00 0.00 57
20260905092047 63 282 20.0 22.0 0.00 0.00 0.00 58
20260905091511 61 273 22.0 27.0 0.00 0.00 0.00 62
20260905091010 61 283 20.0 20.0 0.00 0.00 0.00 60
20260905090510 61 279 22.0 25.0 0.00 0.00 0.00 58
20260905090011 63 281 20.0 25.0 0.00 0.00 0.00 55
20260905085510 61 274 20.0 25.0 0.00 0.00 0.00 59
20260905085011 61 288 18.0 25.0 0.00 0.00 0.00 60
20260905084511 61 277 22.0 25.0 0.00 0.00 0.00 58
20260905084011 63 293 22.0 27.0 0.00 0.00 0.00 57
20260905083510 61 280 27.0 31.0 0.00 0.00 0.00 58
20260905083012 61 286 27.0 29.0 0.00 0.00 0.00 60
20260905082510 61 282 27.0 29.0 0.00 0.00 0.00 61